Location: Spruce Knob
(38.6995°N, 79.5330°W)
Time: 18:34:55
(UTC-05:00)

BlueWalker 3 - Pass Details

Date: 08 December 2022
Orbit: 499 x 517 km, 53.2° (Epoch: 28 January)

Event Time Altitude Azimuth Distance (km) Brightness Sun altitude
Rises 18:39:34 0° 316° (NW) 2,623 6.0 -19.5°
Reaches altitude 10° 18:41:53 10° 324° (NW) 1,730 4.9 -20.0°
Enters shadow 18:44:45 34° 4° (N) 850 2.9 -20.5°
